map of CMN home
Great Circle Mapper logo
CMN - Airport
Location
City:  Casablanca, Morocco
Name:Mohammed V International Airport
ICAO / IATA:GMMN / CMN

Details
Type:Airport (Aerodrome, Airfield)
Use:Public/Civil, International (customs port of entry)
Latitude:3322'03"N (33.367467)
Longitude:735'24"W (-7.589966)
Datum:WGS 1984
Elevation:656 ft (200 m)
Runways:2
Longest:12205 × 148 ft (3720 × 45 m), paved

Time
Time Zone:UTC+0 (DST+1)
Local Time:

Weather
METAR:GMMN 010330Z 12003KT CAVOK 14/05 Q1018 NOSIG
TAF:GMMN 312300Z 0100/0206 VRB02KT CAVOK
TEMPO 0105/0108 6000 NSC
BECMG 0110/0112 34010KT
BECMG 0118/0122 VRB02KT SCT016

Related Locations
Nearby:
Farthest:KAT: 12304 mi / 19802 km
Kaitaia, NZ

Find:

   beyond  
but within

Other Information
Maps:
NOTAMs:
Links:
Sources:

  
flag of Morocco   

Sectional Chart

Flight Planning
at skyvector.com

Satellite Image

Google Maps Satellite View

 

Copyright © 2004-2014 Karl L. Swartz. All rights reserved.
The Great Circle Mapper name and logo are trademarks of the Great Circle Mapper.
All other trademarks mentioned herein belong to their respective owners.
Please see credits for attibutions and further copyright information.

  Follow gcmap on Facebook Follow gcmap on Twitter

hCard Microformat

Geo Microformat